TimeEDT,TemperatureF,Dew PointF,Humidity,Sea Level PressureIn,VisibilityMPH,Wind Direction,Wind SpeedMPH,Gust SpeedMPH,PrecipitationIn,Events,Conditions,WindDirDegrees,DateUTC
12:53 AM,46.0,30.0,54,30.09,10.0,ENE,10.4,-,0.00,,Overcast,70,2014-04-03 04:53:00
1:53 AM,45.0,30.0,56,30.07,10.0,East,12.7,-,N/A,,Overcast,80,2014-04-03 05:53:00
2:53 AM,45.0,30.0,56,30.06,10.0,East,12.7,-,N/A,,Overcast,90,2014-04-03 06:53:00
3:53 AM,45.0,30.0,56,30.03,10.0,East,15.0,23.0,N/A,,Overcast,80,2014-04-03 07:53:00
4:53 AM,44.1,30.0,58,30.01,10.0,East,15.0,-,N/A,,Overcast,90,2014-04-03 08:53:00
5:53 AM,42.1,34.0,73,30.00,10.0,East,15.0,-,0.01,,Mostly Cloudy,90,2014-04-03 09:53:00
6:53 AM,42.1,32.0,67,29.99,10.0,East,20.7,27.6,N/A,,Overcast,100,2014-04-03 10:53:00
7:53 AM,39.9,32.0,73,29.99,7.0,East,23.0,31.1,0.01,Rain,Light Rain,100,2014-04-03 11:53:00
8:11 AM,39.0,32.0,76,29.94,5.0,ESE,23.0,29.9,0.03,Rain-Thunderstorm,Rain,110,2014-04-03 12:11:00
8:25 AM,37.0,30.9,79,29.94,4.0,East,20.7,29.9,0.05,Rain,Rain,90,2014-04-03 12:25:00
8:40 AM,37.0,30.9,79,29.93,3.0,East,17.3,35.7,0.08,Rain,Rain,90,2014-04-03 12:40:00
8:53 AM,36.0,30.9,82,29.97,4.0,East,16.1,24.2,0.10,Rain,Rain,80,2014-04-03 12:53:00
9:29 AM,36.0,30.0,79,29.95,6.0,East,26.5,33.4,0.03,Rain,Light Rain,100,2014-04-03 13:29:00
9:53 AM,35.1,30.9,85,29.97,2.5,East,20.7,31.1,0.08,Rain,Rain,90,2014-04-03 13:53:00
10:16 AM,35.1,30.9,85,29.95,1.8,East,18.4,36.8,0.07,Rain,Rain,100,2014-04-03 14:16:00
10:26 AM,35.1,30.9,85,29.94,2.5,East,20.7,31.1,0.09,Rain,Rain,100,2014-04-03 14:26:00
10:40 AM,34.0,30.9,89,29.93,1.8,East,19.6,33.4,0.14,Rain-Thunderstorm,Rain,100,2014-04-03 14:40:00
10:53 AM,34.0,30.9,89,29.95,1.8,East,19.6,32.2,0.19,Rain,Rain,90,2014-04-03 14:53:00
11:09 AM,34.0,30.9,89,29.93,2.0,East,19.6,29.9,0.05,Rain,Rain,90,2014-04-03 15:09:00
11:34 AM,34.0,32.0,92,29.92,1.8,East,21.9,31.1,0.14,Rain,Rain,90,2014-04-03 15:34:00
11:53 AM,34.0,32.0,92,29.93,1.2,East,17.3,29.9,0.22,Rain,Heavy Rain,90,2014-04-03 15:53:00
12:06 PM,34.0,32.0,92,29.90,1.5,East,23.0,32.2,0.06,Rain,Rain,90,2014-04-03 16:06:00
12:27 PM,34.0,32.0,92,29.88,2.0,East,18.4,28.8,0.12,Rain,Rain,80,2014-04-03 16:27:00
12:39 PM,35.1,33.1,92,29.88,2.5,East,23.0,34.5,0.15,Rain,Rain,90,2014-04-03 16:39:00
12:51 PM,33.8,32.0,93,29.87,4.0,East,20.7,31.1,0.15,Rain,Light Rain,90,2014-04-03 16:51:00
12:53 PM,34.0,33.1,96,29.89,4.0,East,20.7,28.8,0.16,Rain,Light Rain,90,2014-04-03 16:53:00
1:53 PM,37.0,35.1,93,29.81,8.0,East,27.6,36.8,0.02,,Overcast,100,2014-04-03 17:53:00
2:01 PM,37.9,36.0,93,29.80,10.0,East,25.3,34.5,N/A,,Overcast,100,2014-04-03 18:01:00
2:53 PM,39.9,37.0,89,29.80,10.0,ESE,20.7,32.2,N/A,,Overcast,110,2014-04-03 18:53:00
3:25 PM,39.9,37.9,93,29.77,5.0,East,18.4,29.9,0.00,,Overcast,100,2014-04-03 19:25:00
3:53 PM,41.0,39.9,96,29.76,3.0,East,19.6,-,0.00,,Overcast,100,2014-04-03 19:53:00
4:08 PM,41.0,39.0,93,29.75,4.0,East,11.5,26.5,0.00,,Overcast,80,2014-04-03 20:08:00
4:53 PM,39.9,39.0,97,29.82,10.0,Variable,4.6,-,0.00,,Overcast,0,2014-04-03 20:53:00
5:44 PM,39.0,39.0,100,29.81,1.8,NE,4.6,-,N/A,,Overcast,40,2014-04-03 21:44:00
5:53 PM,39.0,39.0,100,29.83,1.2,ENE,5.8,-,N/A,,Overcast,60,2014-04-03 21:53:00
6:03 PM,39.0,39.0,100,29.81,1.5,ENE,6.9,-,N/A,,Overcast,60,2014-04-03 22:03:00
6:26 PM,39.0,37.9,96,29.80,2.0,ENE,8.1,-,N/A,,Overcast,70,2014-04-03 22:26:00
6:41 PM,39.0,37.9,96,29.80,3.0,ENE,13.8,-,N/A,,Overcast,70,2014-04-03 22:41:00
6:53 PM,39.0,37.9,96,29.82,4.0,East,11.5,-,N/A,,Overcast,80,2014-04-03 22:53:00
7:53 PM,37.9,36.0,93,29.83,9.0,East,13.8,19.6,N/A,,Overcast,80,2014-04-03 23:53:00
8:53 PM,37.9,36.0,93,29.84,10.0,East,13.8,-,N/A,,Overcast,100,2014-04-04 00:53:00
9:53 PM,37.0,36.0,96,29.85,7.0,East,11.5,-,N/A,,Overcast,100,2014-04-04 01:53:00
11:53 PM,37.0,35.1,93,29.73,9.0,East,17.3,26.5,N/A,,Overcast,90,2014-04-04 03:53:00